Regional Weather Roundup
Issued by NWS

Home | Current Version | Previous Version | Text Only | Print | Product List | Glossary Off
Versions: 1 2 3 4 5 6 7 8 9 10 11 12 13 14 15 16 17 18 19 20 21 22 23 24 25 26 27 28 29 30 31 32 33 34 35 36 37 38 39 40 41 42 43 44 45 46 47 48 49 50

000
ASUS45 KSLC 232310
RWRUT

UTAH REGIONAL WEATHER ROUNDUP
NATIONAL WEATHER SERVICE SALT LAKE CITY UT
500 PM MDT THU MAR 23 2017

UTZ001>011-023>025-240000-

NORTHERN UTAH

CITY           SKY/WX    TMP DP  RH WIND       PRES   REMARKS
BRIGHAM CITY     N/A     46  36  69 SE5       29.95R
HILL AFB       CLOUDY    38  36  92 SE6       29.95R WCI  34
LOGAN          CLOUDY    45  40  82 S5        29.92R
OGDEN          CLOUDY    38  36  92 S9        29.94R WCI  31
SALT LAKE CITY LGT RAIN  38  34  85 N6        29.97R WCI  33
WENDOVER       SUNNY     57  23  26 NW18G31   29.95R
HEBER CITY     CLOUDY    41  34  75 SW3       29.87R

$$

UTZ011>015-024>027-240000-

CENTRAL/NORTHEAST UTAH

CITY           SKY/WX    TMP DP  RH WIND       PRES   REMARKS
PROVO AIRPORT  CLOUDY    41  37  87 NW20G29   29.95R
MOAB/CANYONLAN MOSUNNY   58  31  35 W16G28    29.73S
DELTA          CLOUDY    41  37  87 NW9       29.98R
PRICE          CLOUDY    44  33  65 NW14      29.81R
RICHFIELD      CLOUDY    41  34  75 SW10      29.98R
ROOSEVELT      MOSUNNY   54  36  50 W18       29.78R
VERNAL         CLOUDY    53  34  48 W8        29.75R

$$

UTZ013>016-019>022-027-240000-

SOUTHERN UTAH

CITY           SKY/WX    TMP DP  RH WIND       PRES   REMARKS
BRYCE CANYON   PTSUNNY   36  28  73 NW25G38   29.90R WCI  24
CEDAR CITY     CLOUDY    38  33  82 NE14      30.00R WCI  30
MILFORD        LGT RAIN N/A N/A N/A NE6       30.00R
ST GEORGE      CLOUDY    54  42  64 E13       29.97R
HANKSVILLE     CLOUDY    46  34  61 S7G21     29.83S
KANAB          MOSUNNY   50  36  57 W7G18     29.96S
BLANDING       CLOUDY    47  32  56 S9        29.86S

$$

REGIONAL REPORTS     COLORADO/ARIZONA

CITY           SKY/WX    TMP DP  RH WIND       PRES   REMARKS
CRAIG, CO      CLOUDY    56  20  24 W17       29.72R
GRAND JUNCTION LGT RAIN  52  39  61 W14       29.74R
RIFLE, CO      CLOUDY    56  30  37 W10       29.71R
MONTROSE, CO   CLOUDY    44  38  79 E14       29.78F
CORTEZ, CO     RAIN      37  35  92 W22G32    29.80F FOG     WCI  26
COLORADO CITY    N/A     46  41  81 NW18      29.99F
PAGE, AZ       CLOUDY    49  32  52 W10G23    29.87R
GRAND CANYON   CLOUDY    40  35  83 W10G18    29.96F WCI  33
KINGMAN, AZ    PTSUNNY   60  22  23 W10       30.00S
FLAGSTAFF, AZ  PTSUNNY   34  30  85 SW15G24   29.97R WCI  24

$$

REGIONAL REPORTS    NEVADA/IDAHO/WYOMING

CITY           SKY/WX    TMP DP  RH WIND       PRES   REMARKS
LAS VEGAS, NV  MOSUNNY   71  23  16 N17G28    29.93F
ELY, NY        MOSUNNY   47  26  44 NW17      30.00R
ELKO, NV       PTSUNNY   50  24  36 W8G17     30.04R
POCATELLO, ID  MOSUNNY   55  34  45 W21       29.91R
BURLEY, ID     SUNNY     52  24  33 W21G38    29.94R
FORT BRIDGER,  CLOUDY    36  36 100 W17G25    29.88R WCI  25
EVANSTON, WY   LGT SNOW  33  30  88 W14       29.89R FOG     WCI  23
ROCK SPRINGS,  CLOUDY    45  34  65 MISG      29.80R
KEMMERER, WY   LGT SNOW  34  32  93 NW21      29.85R WCI  22

$$



USA.gov is the U.S. government's official web portal to all federal, state and local government web resources and services.